Torna al catalogo

STARLINK-6065

AttivoComunicazioniVLEO
NORAD 56812·PAYLOAD·🇺🇸 United States

Lanciato May 31, 2023 da Vandenberg Space Force Base

Loading…

Prossimi Passaggi (prossime 24 ore)

TLE

AggiornatoSource: CelesTrak SupGP

Epoca: Sep 14, 2026, 20:59 UTC

1 56812C 23078AX  26257.87479167  .00696320  00000+0  56186-1 0  2572
2 56812  70.0008 207.3334 0002977 267.7206 128.2741 14.99439466    17

Traccia STARLINK-6065 in tempo reale con AllMySat

Download on the App Store